Location: Madrid
(40.4000°N, 3.6830°W)
Time: 18:03:44
(UTC+02:00)

ISS - Visible Passes

Search period start: 24 September 2020 00:00
Search period end: 04 October 2020 00:00
Orbit: 419 x 420 km, 51.6° (Epoch: 24 September)

Date Brightness Start Highest point End Pass type
(mag) Time Alt. Az. Time Alt. Az. Time Alt. Az.
24 Sep -1.0 21:44:35 10° NW 21:46:16 13° N 21:47:47 10° NNE visible
25 Sep -1.1 20:56:37 10° NW 20:58:36 15° NNW 21:00:36 10° NNE visible
25 Sep -0.6 22:34:46 10° NNW 22:35:08 11° NNW 22:35:08 11° NNW visible
26 Sep -1.1 21:47:19 10° NNW 21:48:50 12° N 21:49:29 12° NNE visible
27 Sep -1.1 20:59:39 10° NNW 21:01:09 12° N 21:02:38 10° NNE visible
27 Sep -0.5 22:36:31 10° NNW 22:36:47 11° NNW 22:36:47 11° NNW visible
28 Sep -1.4 21:49:14 10° NNW 21:51:08 15° N 21:51:08 15° N visible
29 Sep -1.3 21:01:54 10° NNW 21:03:39 13° N 21:05:25 10° NE visible
29 Sep -0.4 22:38:08 10° NW 22:38:26 12° NW 22:38:26 12° NW visible
30 Sep -1.8 21:50:50 10° NNW 21:52:48 22° N 21:52:48 22° N visible
01 Oct -1.8 21:03:33 10° NNW 21:06:02 19° NNE 21:07:11 16° NE visible
01 Oct -0.3 22:39:52 10° NW 22:40:09 12° NW 22:40:09 12° NW visible
02 Oct -2.3 21:52:27 10° NW 21:54:35 33° NNW 21:54:35 33° NNW visible
03 Oct -2.8 21:05:05 10° NW 21:08:12 34° NNE 21:09:05 29° ENE visible
03 Oct -0.2 22:41:58 10° WNW 22:42:03 10° WNW 22:42:03 10° WNW visible
